Location: Hope
(40.9110°N, 74.9680°W)
Time: 03:02:19
(UTC-04:00)

VELOX 1 - Pass Details

Date: 06 August 2021
Orbit: 626 x 643 km, 98.3° (Epoch: 26 September)

Event Time Altitude Azimuth Distance (km) Brightness Sun altitude
Exits shadow 04:35:13 - 175° (S) 2,353 ? -14.8°
Reaches altitude 10° 04:36:02 10° 176° (S) 2,024 ? -14.7°
Maximum altitude 04:40:24 65° 258° (WSW) 709 ? -14.0°
Drops below altitude 10° 04:44:50 10° 341° (NNW) 2,046 ? -13.4°
Sets 04:47:05 0° 344° (NNW) 2,961 ? -13.0°
